Regional Weather Roundup
Issued by NWS

Home | Current Version | Previous Version | Text Only | Print | Product List | Glossary On
Versions: 1 2 3 4 5 6 7 8 9 10 11 12 13 14 15 16 17 18 19 20 21 22 23 24 25 26 27 28 29 30 31 32 33 34 35 36 37 38 39 40 41 42 43 44 45 46 47 48 49 50
000
ASHW40 PHFO 300332
RWRHI

WEATHER ROUNDUP FOR HAWAII
NATIONAL WEATHER SERVICE HONOLULU HI
500 PM HST MON AUG 29 2016

THIS IS AN AUTOMATED REPORT THAT HAS NOT BEEN QUALITY CONTROLLED.

NOTE..."FAIR" INDICATES FEW OR NO CLOUDS BELOW 12,000 FEET WITH NO
SIGNIFICANT WEATHER AND/OR OBSTRUCTIONS TO VISIBILITY.

* - THESE SITES REPORT LIMITED FIELDS

HIZ001>004-300400-
KAUAI-NIIHAU-

CITY           SKY/WX    TMP DP  RH WIND       PRES   REMARKS
LIHUE APT      MOSUNNY   83  67  58 NE14      30.00R
PORT ALLEN*      N/A     84 N/A N/A E25G31      N/A
POIPU*           N/A     84 N/A N/A NE9G20      N/A
PRINCEVILLE*     N/A     81 N/A N/A E10G18      N/A
KOKOLE POINT*    N/A     86 N/A N/A MISG        N/A
MOLOAA DAIRY*    N/A     82  66  57 E8G16       N/A
WAIMEA HTS*    NOT AVBL
PUU OPAE*      NOT AVBL
PUU LUA*       NOT AVBL
MAKAHA RIDGE*    N/A     81  64  57 SW3G9       N/A
$$

HIZ005>011-300400-
OAHU-

CITY           SKY/WX    TMP DP  RH WIND       PRES   REMARKS
HONOLULU       PTSUNNY   83  65  54 NE17G23   29.95S
KALAELOA       PTSUNNY   83  66  56 NE7G18    29.97R
KANEOHE MCB    MOSUNNY   81  68  64 E15       29.95S
WHEELER FIELD  FAIR      80  68  66 E13       29.98S
BELLOWS*         N/A    N/A N/A N/A NE18        N/A
KAHUKU*          N/A    N/A N/A N/A VRB1        N/A
WHEELER*       NOT AVBL
WAIANAE HARBOR NOT AVBL
DILLINGHAM*      N/A     82  64  54 MISG        N/A
KAHUKU TRN*      N/A     79  68  69 N10G22      N/A
KAWAILOA*        N/A     75  64  69 E13G23      N/A
KII*             N/A     81  70  69 E18         N/A
MAKUA RANGE*     N/A     88  68  51 W10G21      N/A  HX  91
OAHU FOREST NW NOT AVBL
SCHOFIELD BRK*   N/A     79  66  65 MISG        N/A
SCHOFIELD S*   NOT AVBL
WAIANAE VLY*   NOT AVBL
KUAOKALA*      NOT AVBL
HONOULIUULI*   NOT AVBL
MOKUOLOE IS*   NOT AVBL
PALEHUA*       NOT AVBL
WAIAWA PHB*    NOT AVBL
$$

HIZ012>013-300400-
MOLOKAI-

CITY           SKY/WX    TMP DP  RH WIND       PRES   REMARKS
MOLOKAI AIRPT  SUNNY     82  66  58 NE15G30   29.97R
KALAUPAPA      NOT AVBL
MAKAPULAPAI*     N/A     81  66  61 E18G26      N/A
MOLOKAI 1*     NOT AVBL
PUU ALII*        N/A     65  62  91 N3          N/A
$$

HIZ016-300400-
KAHOOLAWE-

CITY           SKY/WX    TMP DP  RH WIND       PRES   REMARKS
KAHOOLAWE*       N/A     73 N/A N/A E1          N/A
HAKIOAWA*        N/A     79  69  70 CALM      30.38R
HONOKANAIA*      N/A     86  65  49 NE17G31   29.88F
KANELOA*         N/A     77  64  65 E18G35    30.01F
KEALIALALO*    NOT AVBL
LUA MAKIKA*    NOT AVBL
$$

HIZ014>015-300400-
LANAI-

CITY           SKY/WX    TMP DP  RH WIND       PRES   REMARKS
LANAI CITY     FAIR      77  65  66 NE24G30   30.00R
LANAI 1*       NOT AVBL
$$

HIZ017>028-300400-
MAUI-

CITY           SKY/WX    TMP DP  RH WIND       PRES   REMARKS
KAHULUI        MOSUNNY   85  66  53 NE18G31   29.94S
KAPALUA-W MAUI MOSUNNY   82  64  54 NE21G29   29.96S
HANA AIRPORT     N/A     81  68  65 NE7       30.02R
HANA*            N/A     81 N/A N/A E6          N/A
HALEAKALA SUMM   N/A     57  32  38 NW1         N/A
MAALAEA BAY*     N/A     82 N/A N/A VRB26G35    N/A
HALEAKALA*     NOT AVBL
KAUPO GAP*     NOT AVBL
KULA 1*          N/A     58  56  95 NW5         N/A
$$

HIZ023>026-300400-
BIG ISLAND OF HAWAII COAST AND LOWER SLOPES-

CITY           SKY/WX    TMP DP  RH WIND       PRES   REMARKS
KAILUA KONA    PTSUNNY   85  74  69 SW10      29.90F HX  92
HILO           MOSUNNY   80  67  64 N6        29.97S
HONOKAA*         N/A     75 N/A N/A VRB1        N/A
KAWAIHAE MWT*    N/A     86 N/A N/A SW9         N/A
KAWAIHAE*        N/A     82 N/A N/A SW10      29.91S
SOUTH POINT*     N/A     77 N/A N/A N16G26      N/A
UPOLU AIRPORT* NOT AVBL
KAMUELA*       PTCLDY    72  61  68 NE15      30.08R
HAKALAU*         N/A     61  58  91 NE3G9       N/A
KALOKO-HONOKO*   N/A     82  73  74 W5          N/A
PALI 2*          N/A     72  61  68 S20G30      N/A
KEALAKOMO*       N/A     84  64  51 NE21G31     N/A
KAUPULEHU*     NOT AVBL
KAPAPALA*        N/A     76  67  72 SW6G12      N/A
LOWER KAHUKU*    N/A    N/A N/A N/A N2G9        N/A
PUHE CS*         N/A     88  72  58 SW3         N/A  HX  94
PUHO CS*         N/A     78  74  86 NE2         N/A
PTA KEAMUKU*     N/A     70  59  68 CALM        N/A
WAIKOLOA*      NOT AVBL
$$

HIZ027>028-300400-
BIG ISLAND OF HAWAII INTERIOR AND SUMMMITS-

CITY           SKY/WX    TMP DP  RH WIND       PRES   REMARKS
BRADSHAW FIELD SUNNY     68  51  56 W7        30.29R
MK VISITOR CEN   N/A     50  48  93 W7          N/A
MAUNA KEA*       N/A     43   1  17 SE15        N/A
MAUNA LOA*       N/A     46  45  93 MISG        N/A
MAUNA LOA 1*   NOT AVBL
PTA KIPUKA*      N/A    N/A N/A N/A N7G14       N/A
PTA RANGE 17*    N/A     68  50  52 W12G18      N/A
PTA WEST*        N/A    N/A N/A N/A NW9G20      N/A
NENE CABIN*      N/A     57  57 100 SE2         N/A
AHUMOA*        NOT AVBL
PTA PORTABLE*  NOT AVBL
PUU MALI*        N/A     61  50  67 NE6         N/A
$$

HIC003-300400-
NORTHWEST ISLANDS-

CITY           SKY/WX    TMP DP  RH WIND       PRES   REMARKS
MIDWAY ISLAND  RAIN      75  73  94 NW5       29.94S
MIDWAY NOS*      N/A     75 N/A N/A MISG      29.93S
FRENCH FRIGATE NOT AVBL
$$

PHZ110>124-180-300400-
BUOY REPORTS

STATION/POSITION TIME  TEMP    WIND        PRES    WAVE   SWELL
                       AIR SEA DIR/SP/G            HT/PER HT/DIR
                 (UTC) (F)     (DEG/KT/KT) (MB)    (FT/S) (FT/D)
BUOY 51001       NOT AVBL
BUOY 51101       0250   80 81   70/ 16/ 17 1015.8R   6/ 8   3/100
BUOY 51100       NOT AVBL
BUOY 51002       NOT AVBL
BUOY 51003       0250   81 83   90/ 16/ 17 1012.6R   7/ 7   5/100
BUOY 51004       0250   81 82   20/ 16/ 17 1012.3R   6/ 8   5/ 80
BARBERS PT BUOY  NOT AVBL
WAIMEA BAY BUOY  0304      81                N/A     4/ 8   2/330
KAILUA BAY BUOY  0311      81                N/A     6/ 7   2/ 50
LANAI BUOY       0315      83                N/A     3/12   2/190
BARBERS PT 2     NOT AVBL
PAUWELA MAUI     0309      80                N/A     5/ 6   2/360
HILO             0212      81                N/A     5/ 6   2/ 80
KANEOHE BAY BUOY 0306      80                N/A     6/ 6   2/ 50
HANALEI KAUAI    NOT AVBL
KAHULUI HARBOR   0300   80 82   40/  8/ 19 1014.6R
HONOLULU HARBOR  0300   81 82   50/  6/ 13 1015.0R
KILO NALU        NOT AVBL
HILO HARBOR      0300   80 80   10/  7/  9 1014.4R
MOKUOLOE         0200   80 82   80/ 10/ 15 1015.2F
NAWILIWILI       0300   80 82   50/  9/ 15 1015.5R
WHOTS BUOY       NOT AVBL
BUOY 51028       NOT AVBL
$$

......................KEY........................................
  SKY/WX - SKY CONDITIONS/PRESENT WEATHER
  TMP    - TEMPERATURE IN FAHRENHEIT
  DWPT   - DEWPOINT IN FAHRENHEIT
  RH     - RELATIVE HUMIDITY IN PERCENT
  WIND   - DIRECTION AND SPEED /MPH FOR ISLANDS...KTS FOR BUOYS/
  PRES   - MEAN SEA LEVEL PRESSURE IN INCHES OF HG
  VSB    - VISIBILITY IN MILES
  HX     - HEAT INDEX
  WCI    - WIND CHILL INDEX
  VRB    - VARIABLE WIND DIRECTION
  N/A    - NOT AVAILABLE




USA.gov is the U.S. government's official web portal to all federal, state and local government web resources and services.